Regional Weather Roundup
Issued by NWS Little Rock, AR

Home | Current Version | Previous Version | Text Only | Print | Product List | Glossary Off
Versions: 1 2 3 4 5 6 7 8 9 10 11 12 13 14 15 16 17 18 19 20 21 22 23 24 25 26 27 28 29 30 31 32 33 34 35 36 37 38 39 40 41 42 43 44 45 46 47 48 49 50

000
ASUS44 KLZK 302105
RWRLZK

WEATHER ROUNDUP FOR ARKANSAS
NATIONAL WEATHER SERVICE LITTLE ROCK AR
400 PM CDT THU JUL 30 2015

NOTE: "FAIR" INDICATES FEW OR NO CLOUDS BELOW 12,000 FEET WITH NO
SIGNIFICANT WEATHER AND/OR OBSTRUCTIONS TO VISIBILITY.

ARZ001-003-010-029-302200-
NORTHWEST ARKANSAS

CITY           SKY/WX    TMP DP  RH WIND       PRES   REMARKS
FAYETTEVILLE   PTSUNNY   86  71  60 NE6       30.13F HX  91
FORT SMITH     MOSUNNY   92  71  50 E8        30.06F HX  98
HARRISON       SUNNY     85  62  46 NE7       30.17F HX  85
BENTONVILLE    PTSUNNY   84  64  51 E7        30.16F HX  86
ROGERS         PTSUNNY   85  64  49 E8        30.16F HX  86
SILOAM SPGS    PTSUNNY   84  66  54 E5        30.13F HX  86
HIGHFILL       PTSUNNY   86  69  56 E9        30.15F HX  90
SPRINGDALE     PTSUNNY   86  70  58 NE8       30.16F HX  90
$$

ARZ004-005-016-302200-
NORTH CENTRAL ARKANSAS

CITY           SKY/WX    TMP DP  RH WIND       PRES   REMARKS
BATESVILLE     SUNNY     88  63  42 NE5       30.10F HX  88
FLIPPIN        SUNNY     90  57  33 NE7       30.13F HX  88
MTN HOME       SUNNY     86  59  39 E6        30.14F HX  85
$$

ARZ040-041-302200-
WEST CENTRAL ARKANSAS

CITY           SKY/WX    TMP DP  RH WIND       PRES   REMARKS
MENA           CLOUDY    84  72  65 E5        30.13R HX  89
MOUNT IDA      PTSUNNY   91  72  53 CALM      30.06S HX  98
$$

ARZ009-017-025-026-028-302200-
NORTHEAST ARKANSAS

CITY           SKY/WX    TMP DP  RH WIND       PRES   REMARKS
JONESBORO      SUNNY     85  65  51 NE9       30.09F HX  86
NEWPORT        SUNNY     86  66  50 N9G24     30.10F HX  88
WALNUT RIDGE   SUNNY     88  61  40 NE10      30.10F HX  88
BLYTHEVILLE    SUNNY     86  65  49 NE16      30.09F HX  88
$$

ARZ022-023-033-042-044-302200-
CENTRAL ARKANSAS

CITY           SKY/WX    TMP DP  RH WIND       PRES   REMARKS
LITTLE ROCK    MOSUNNY   92  65  40 NE17G23   30.06F HX  94
N LITTLE ROCK  MOSUNNY   94  69  44 NE12G20   30.06  HX  98
SEARCY         SUNNY     89  64  43 N14G20    30.09F HX  90
HOT SPRINGS    MOSUNNY   95  70  44 E12       30.05F HX 101
RUSSELLVILLE   SUNNY     92  67  43 VRB7      30.08F HX  95
CLINTON        LGT RAIN  90  64  43 CALM      30.11F HX  91
$$

ARZ036-302200-
EAST ARKANSAS

CITY           SKY/WX    TMP DP  RH WIND       PRES   REMARKS
WEST MEMPHIS   SUNNY     89  65  44 NE10      30.06F HX  91
$$

ARZ050-053-066-070-073-302200-
SOUTHWEST ARKANSAS

CITY           SKY/WX    TMP DP  RH WIND       PRES   REMARKS
ARKADELPHIA    FAIR      97  76  50 NE10      30.04F HX 110
CAMDEN         SUNNY     97  73  46 N9        30.02S HX 107
TEXARKANA      MOSUNNY   97  72  44 NE7       30.02F HX 105
EL DORADO      MOSUNNY   97  76  50 NE9       30.01F HX 110
DE QUEEN       CLOUDY    76  73  91 NE7       30.06S
$$

ARZ056-057-069-302200-
SOUTHEAST ARKANSAS

CITY           SKY/WX    TMP DP  RH WIND       PRES   REMARKS
PINE BLUFF     SUNNY     92  69  47 N14G23    30.05F HX  97
STUTTGART      SUNNY     90  64  43 NE16      30.06F HX  91
MONTICELLO     MOSUNNY   95  75  52 NE10G20   30.02F HX 107

$$





USA.gov is the U.S. government's official web portal to all federal, state and local government web resources and services.